Time,TemperatureF,DewpointF,PressureIn,WindDirection,WindDirectionDegrees,WindSpeedMPH,WindSpeedGustMPH,Humidity,HourlyPrecipIn,Conditions,Clouds,dailyrainin,SoftwareType,DateUTC
2013-07-20 00:33:00,57.0,34.0,29.83,North,-999,0.0,0.0,41,0.00,,,-99.99,,2013-07-20 07:33:00,
2013-07-20 00:44:00,57.0,34.0,29.83,North,-999,0.0,0.0,41,0.00,,,-99.99,,2013-07-20 07:44:00,
2013-07-20 01:44:00,57.0,33.0,29.84,North,-999,0.0,0.0,40,0.00,,,-99.99,,2013-07-20 08:44:00,
2013-07-20 02:33:00,59.0,33.0,29.81,WNW,300,1.0,3.0,38,0.00,,,-99.99,,2013-07-20 09:33:00,
2013-07-20 02:43:00,59.0,33.0,29.81,WNW,300,1.0,3.0,38,0.00,,,-99.99,,2013-07-20 09:43:00,
2013-07-20 03:32:00,58.0,34.0,29.79,North,-999,0.0,0.0,41,0.00,,,-99.99,,2013-07-20 10:32:00,
2013-07-20 03:42:00,58.0,34.0,29.79,North,-999,0.0,0.0,41,0.00,,,-99.99,,2013-07-20 10:42:00,
2013-07-20 04:32:00,57.0,34.0,29.76,North,-999,0.0,0.0,41,0.00,,,-99.99,,2013-07-20 11:32:00,
2013-07-20 04:43:00,57.0,34.0,29.76,North,-999,0.0,0.0,41,0.00,,,-99.99,,2013-07-20 11:43:00,
2013-07-20 05:32:00,59.0,35.0,29.76,ENE,60,1.0,5.0,41,0.00,,,-99.99,,2013-07-20 12:32:00,
2013-07-20 11:35:00,76.0,44.0,29.80,ENE,70,7.0,12.0,32,0.00,,,-99.99,,2013-07-20 18:35:00,
2013-07-20 11:43:00,76.0,44.0,29.80,ENE,70,7.0,12.0,32,0.00,,,-99.99,,2013-07-20 18:43:00,
2013-07-20 12:43:00,76.0,46.0,29.81,NNE,20,6.0,11.0,35,0.00,,,-99.99,,2013-07-20 19:43:00,
2013-07-20 13:44:00,74.0,47.0,29.82,ESE,110,7.0,13.0,38,0.00,,,-99.99,,2013-07-20 20:44:00,
2013-07-20 14:33:00,65.0,53.0,29.88,ENE,60,1.0,3.0,65,0.02,,,-99.99,,2013-07-20 21:33:00,
2013-07-20 14:44:00,65.0,53.0,29.88,ENE,60,1.0,3.0,65,0.02,,,-99.99,,2013-07-20 21:44:00,
2013-07-20 14:45:00,69.0,52.0,29.83,North,-999,0.0,0.0,55,0.00,,,-99.99,,2013-07-20 21:45:00,
2013-07-20 15:33:00,69.0,52.0,29.83,North,-999,0.0,0.0,55,0.00,,,-99.99,,2013-07-20 22:33:00,
2013-07-20 16:43:00,76.0,46.0,29.76,NE,40,3.0,10.0,35,0.01,,,-99.99,,2013-07-20 23:43:00,
2013-07-20 17:43:00,76.0,44.0,29.72,NE,50,7.0,13.0,32,0.00,,,-99.99,,2013-07-21 00:43:00,
2013-07-20 18:35:00,77.0,45.0,29.72,NNE,30,5.0,12.0,32,0.00,,,-99.99,,2013-07-21 01:35:00,
2013-07-20 18:44:00,-999.0,-99.9,29.72,NNE,30,5.0,12.0,-999,-99.99,,,-99.99,,2013-07-21 01:44:00,
2013-07-20 19:35:00,75.0,48.0,29.68,NE,50,7.0,11.0,39,0.00,,,-99.99,,2013-07-21 02:35:00,
2013-07-20 19:43:00,75.0,48.0,29.68,NE,50,7.0,11.0,39,0.00,,,-99.99,,2013-07-21 02:43:00,
2013-07-20 20:33:00,72.0,49.0,29.65,NE,50,2.0,6.0,44,0.00,,,-99.99,,2013-07-21 03:33:00,
2013-07-20 20:44:00,72.0,49.0,29.65,NE,50,2.0,6.0,44,0.00,,,-99.99,,2013-07-21 03:44:00,
2013-07-20 21:32:00,69.0,49.0,29.67,North,-999,0.0,0.0,49,0.00,,,-99.99,,2013-07-21 04:32:00,
2013-07-20 21:43:00,69.0,49.0,29.67,North,-999,0.0,0.0,49,0.00,,,-99.99,,2013-07-21 04:43:00,
2013-07-20 22:32:00,66.0,49.0,29.70,North,-999,0.0,0.0,54,0.00,,,-99.99,,2013-07-21 05:32:00,
2013-07-20 22:42:00,66.0,49.0,29.70,North,-999,0.0,0.0,54,0.00,,,-99.99,,2013-07-21 05:42:00,
2013-07-20 23:32:00,64.0,49.0,29.72,North,-999,0.0,0.0,58,0.00,,,-99.99,,2013-07-21 06:32:00,
2013-07-20 23:42:00,64.0,49.0,29.72,North,-999,0.0,0.0,58,0.00,,,-99.99,,2013-07-21 06:42:00,